Tracking 19176 objects as of 27-May-2018
HD Live streaming from Space Station
objects crossing your sky now

ORBCOMM FM 40

Track ORBCOMM FM 40 now!
10-day predictions
ORBCOMM FM 40 is classified as:


NORAD ID: 33065
Int'l Code: 2008-031F
Perigee: 651.8 km
Apogee: 664.0 km
Inclination: 48.4 °
Period: 97.7 minutes
Semi major axis: 7028 km
RCS: 1.2449 m2 (large)
Launch date: June 19, 2008
Source: ORBCOMM (ORB)
Launch site: KAPUSTIN YAR MISSILE AND SPACE COMPLEX (KYMTR)

This spacecraft is one of the 5 ORBCOMM satellites launched on Jun 19, 2008 designed to replenish the company's aging constellation.
aabbcc
Your satellite tracking list
Your tracking list is empty




NASA's NSSDC Master Catalog

Two Line Element Set (TLE):
1 33065U 08031F   18147.20048998 -.00000025  00000-0  27244-4 0  9991
2 33065  48.4451 252.1817 0008726 201.2487 239.8503 14.73229620534028
Source of the keplerian elements: AFSPC